Powrót do katalogu

DELTA 1 DEB

AktywnyLEO
NORAD 10207·DEBRIS·🇺🇸 United States

Wystrzelony Jul 14, 1977 z Cape Canaveral Space Force Station

Loading…

Następne Przeloty (najbliższe 24 godziny)

TLE

ŚwieżeSource: Space-Track

Epoka: Sep 13, 2026, 23:50 UTC

1 10207U 77065AL  26256.99372838  .00002589  00000-0  47778-2 0  9994
2 10207  29.0802 202.7824 0668978  73.6313 293.6684 12.74102740265521

Śledź DELTA 1 DEB w czasie rzeczywistym z AllMySat

Download on the App Store